Home   Weather   Washington Park   Past weeks
Flag for USA

Past Weather in Washington Park, Alabama, USA — Yesterday and Last 2 Weeks

Now
73 °F

Scattered clouds.


Feels Like: 77 °F
Forecast: 82 / 61 °F
Wind: No wind

Location: Maxwell Air Force Base / Montgomery

Current Time: Apr 4, 2020 at 8:21:10 pm

Latest Report: Apr 4, 2020 at 6:56 pm


Visibility: 10 mi

Pressure: 29.92 "Hg

Humidity: 48%

Dew Point: 53 °F

Location of Washington ParkLocation

Past Weather in Washington Park — Graph

°F

Washington Park Temperature Yesterday

Maximum temperature yesterday: 79 °F (at 3:56 pm)
Minimum temperature yesterday: 49 °F (at 1:56 am)
Average temperature yesterday: 62 °F

High & Low Weather Summary for the Past Weeks

 TemperatureHumidityPressure
High87 °F (Mar 28, 3:56 pm)100% (Mar 27, 7:33 am)30.34 "Hg (Mar 27, 7:33 am)
Low44 °F (Apr 2, 6:56 am)27% (Mar 30, 12:56 pm)29.68 "Hg (Mar 31, 9:28 am)
Average67 °F72%30.03 "Hg
* Reported Mar 20 6:56 pm — Apr 4 6:56 pm, Washington Park. Weather by CustomWeather, © 2020

Note: Actual official high and low records may vary slightly from our data, if they occured in-between our weather recording intervals... More about our weather records

Washington Park Weather History for the Previous 24 Hours

Scroll right to see more
 ConditionsComfort  
Time TempWeatherWind HumidityBarometerVisibility
6:56 pm
Sat, Apr 4
73 °FScattered clouds.No wind48%29.92 "Hg10 mi
5:56 pm79 °FSunny.5 mph40%29.90 "Hg10 mi
4:56 pm82 °FScattered clouds.7 mph32%29.89 "Hg10 mi
3:56 pm83 °FSunny.6 mph32%29.88 "Hg10 mi
2:56 pm82 °FSunny.7 mph34%29.89 "Hg10 mi
1:56 pm81 °FSunny.6 mph35%29.93 "Hg10 mi
12:56 pm80 °FScattered clouds.5 mph39%29.94 "Hg10 mi
11:56 am78 °FPassing clouds.6 mph42%29.98 "Hg10 mi
10:56 am75 °FSunny.No wind46%29.99 "Hg10 mi
9:56 am70 °FSunny.No wind60%30.01 "Hg10 mi
8:56 am63 °FSunny.3 mph75%30.01 "Hg10 mi
7:56 am58 °FSunny.No wind87%30.01 "Hg10 mi
6:56 am53 °FSunny.No wind95%30.00 "Hg10 mi
5:56 am54 °FClear.No wind93%29.98 "Hg10 mi
4:56 am54 °FPassing clouds.No wind90%29.96 "Hg10 mi
3:56 am53 °FClear.No wind95%29.96 "Hg10 mi
2:56 am55 °FClear.No wind93%29.96 "Hg10 mi
1:56 am54 °FClear.No wind95%29.96 "Hg10 mi
12:56 am55 °FClear.No wind92%29.98 "Hg10 mi
11:56 pm
Fri, Apr 3
57 °FPassing clouds.No wind86%29.98 "Hg10 mi
10:56 pm59 °FClear.No wind82%29.98 "Hg10 mi
9:56 pm62 °FPassing clouds.No wind70%29.98 "Hg10 mi
8:56 pm62 °FClear.No wind75%29.98 "Hg10 mi
Weather by CustomWeather, © 2020

See weather overview

Advertising